Location: *
(50.9667°S, 178.4000°E)
Time: 01:01:41
(UTC+00:00)

Daily predictions for brighter satellites

Satellite Brightness Start Highest point End
(mag) Time Altitude Azimuth Time Altitude Azimuth Time Altitude Azimuth
STARLINK-66 3.7 08:20:29 10° WSW 08:24:43 78° NNW 08:28:57 10° ENE
IRIDIUM 106 4.5 08:19:58 10° S 08:25:20 86° W 08:30:35 10° N
STARLINK-41 3.7 08:22:10 10° WSW 08:26:24 76° NNW 08:30:37 10° ENE
MOS 1 Rocket 3.8 08:21:16 10° NNE 08:26:48 86° WNW 08:32:17 10° SSW
STARLINK-64 3.7 08:23:53 10° WSW 08:28:06 75° NNW 08:32:18 10° ENE
Ariane Rocket 3.1 08:23:12 10° SSE 08:28:26 82° ENE 08:33:35 10° NNW
STARLINK-70 3.7 08:25:28 10° WSW 08:29:42 74° NNW 08:33:54 10° ENE
Meteor 2-4 Rocket 3.9 08:25:45 10° SSW 08:31:21 77° W 08:37:04 10° N
STARLINK-68 3.7 08:27:16 10° WSW 08:31:30 71° NNW 08:35:42 10° ENE
STARLINK-58 3.7 08:28:50 10° WSW 08:33:03 71° NNW 08:37:16 10° ENE
Iridium 4 Rocket 4.5 08:29:21 10° SSE 08:33:28 29° ESE 08:37:51 10° NE
FALCON 9 DEB 2.9 08:31:34 10° W 08:34:05 58° S 08:36:36 10° ESE
Cosmos 1939 Rocket 4.2 08:30:26 10° S 08:34:23 46° WSW 08:38:21 10° NW
STARLINK-62 3.8 08:30:35 10° WSW 08:34:48 69° NNW 08:38:59 10° ENE
CZ-4 R/B 4.1 08:32:23 10° S 08:35:58 26° WSW 08:39:33 10° WNW
STARLINK-63 3.8 08:32:10 10° WSW 08:36:23 69° NNW 08:40:34 10° ENE
STARLINK 3.7 08:33:35 10° WSW 08:37:48 71° NNW 08:42:00 10° ENE
Cosmos 1515 4.4 08:34:07 10° SSW 08:37:59 55° W 08:41:47 10° N
USA 267 3.3 08:32:34 10° ESE 08:39:12 73° NE 08:45:48 10° NW
STARLINK-72 3.8 08:35:24 10° WSW 08:39:36 68° NNW 08:43:48 10° ENE
Meteor 1-5 Rocket 4.1 08:34:24 10° N 08:39:44 69° E 08:45:06 10° SSE
CZ-2C R/B 3.9 08:35:01 10° SSE 08:40:35 41° E 08:46:02 10° NNE
Starlink Launch 2 leader 3.0 08:38:19 10° W 08:40:51 56° S 08:43:23 10° ESE
STARLINK 1044 3.2 08:39:58 10° W 08:42:52 60° S 08:45:45 10° ESE
STARLINK-59 3.8 08:38:49 10° WSW 08:43:01 64° NNW 08:47:11 10° NE
FALCON 9 DEB 3.1 08:41:08 10° W 08:43:39 55° S 08:46:10 10° ESE
Starlink Launch 2 trailer 3.1 08:42:00 10° W 08:44:32 54° S 08:47:04 10° ESE
STARLINK-57 3.8 08:40:29 10° WSW 08:44:41 63° NNW 08:48:49 10° NE
Resurs 01 Rocket 2.8 08:41:32 10° SE 08:45:23 26° E 08:49:11 10° NNE
Cosmos 2266 Rocket 4.3 08:40:03 10° SSW 08:46:10 70° W 08:52:19 10° N
Cosmos 1346 Rocket 3.4 08:42:22 10° NNW 08:46:26 64° WSW 08:50:35 10° S
FALCON 9 DEB 3.1 08:44:15 10° W 08:46:45 54° S 08:49:16 10° ESE
SeaSat 1 2.7 08:42:18 10° SE 08:47:09 48° ENE 08:51:56 10° N
Cosmos 1741 Rocket 4.1 08:42:22 10° SSW 08:47:48 88° ESE 08:53:11 10° NNE
STARLINK-28 3.9 08:43:49 10° WSW 08:48:00 60° NNW 08:52:01 11° NE
Cosmos 2227 Rocket 4.4 08:43:07 10° WNW 08:48:08 31° SW 08:53:11 10° SSE
Meteor 1-23 Rocket 4.3 08:42:28 10° S 08:48:08 66° ESE 08:53:43 10° NNE
Cosmos 1500 3.1 08:44:54 10° N 08:48:42 84° E 08:52:34 10° SSE
USA 81 4.3 08:43:32 10° S 08:48:54 75° W 08:54:13 10° N
STARLINK-75 4.0 08:45:01 10° WSW 08:49:10 56° NNW 08:53:05 11° NE
STARLINK-53 3.9 08:46:56 10° WSW 08:51:07 58° NNW 08:55:01 11° NE
STARLINK-54 3.9 08:47:08 10° WSW 08:51:17 58° NNW 08:55:11 11° NE
Lacrosse 5 2.8 08:46:31 10° WSW 08:51:20 40° NW 08:56:07 10° NNE
Cosmos 1733 Rocket 3.3 08:46:56 10° NNW 08:51:24 77° W 08:55:58 10° S
SJ-6B 2.7 08:48:29 10° SSE 08:52:23 76° ENE 08:56:11 10° N
USA 186 1.6 08:50:52 10° S 08:53:23 59° WSW 08:55:44 10° NNW
FALCON 9 R/B 4.3 08:34:51 10° WNW 08:53:59 33° NNW 09:00:17 11° NE
CZ-2C R/B 4.3 08:49:22 10° NNW 08:54:05 31° W 08:58:58 10° SSW
IRS-1A Rocket 4.5 08:49:01 10° SSE 08:54:38 78° WSW 09:00:10 10° NNW
STARLINK-37 4.0 08:50:43 10° WSW 08:54:51 55° NNW 08:58:36 12° NE
STARLINK-55 3.9 08:51:59 10° WSW 08:56:08 56° NNW 08:59:51 12° NE
Cosmos 2084 Rocket 3.5 08:52:04 10° SW 08:56:25 76° SE 09:00:24 12° NE
ATLAS 5 CENTAUR R/B 3.0 08:49:43 10° NW 08:56:40 69° SW 09:02:54 10° SE
Cosmos 2263 Rocket 2.2 08:51:28 10° NNW 08:57:04 64° ENE 09:02:46 10° SE
STARLINK-34 4.0 08:53:49 10° WSW 08:57:57 54° NNW 09:01:36 13° NE
Cosmos 1536 2.8 08:54:00 10° N 08:58:02 70° E 09:02:06 10° SSE
Cosmos 1420 Rocket 4.2 08:53:44 10° NNW 08:59:02 83° WSW 09:04:28 10° SSE
STARLINK-81 3.9 08:55:18 10° WSW 08:59:27 56° NNW 09:03:04 13° NE
Cosmos 371 Rocket 4.3 08:55:44 10° NNE 08:59:54 28° E 09:04:06 10° SE
STARLINK 1050 3.4 08:57:42 10° W 09:00:35 56° S 09:03:30 10° ESE
STARLINK-24 4.0 08:56:36 10° WSW 09:00:43 52° NNW 09:04:17 13° NE
Cosmos 1975 Rocket 3.7 08:57:01 10° S 09:01:24 44° ESE 09:05:08 13° NE
STARLINK 1055 3.4 08:58:52 10° W 09:01:48 56° S 09:04:43 10° ESE
Cosmos 1782 Rocket 4.3 08:58:30 11° NNE 09:02:19 35° E 09:06:21 10° SSE
STARLINK-77 4.0 08:58:37 10° WSW 09:02:45 53° NNW 09:06:15 14° NE
STARLINK 1022 3.4 09:00:04 10° W 09:02:59 56° S 09:05:54 10° ESE
STARLINK 1042 3.4 09:00:58 10° W 09:03:52 56° S 09:06:47 10° ESE
Cosmos 724 4.3 08:58:29 10° NNW 09:04:24 82° NE 09:10:32 10° SE
STARLINK-25 4.0 09:00:18 10° WSW 09:04:25 52° NNW 09:07:51 14° NE
STARLINK 1056 3.4 09:02:18 10° W 09:05:14 56° S 09:08:09 10° ESE
Cosmos 405 3.2 09:01:48 10° SSW 09:05:22 70° W 09:08:52 10° N
STARLINK-71 4.1 09:02:09 10° WSW 09:06:14 48° NNW 09:09:34 14° NE
STARLINK 1054 3.4 09:03:38 10° W 09:06:33 55° S 09:09:27 10° ESE
STARLINK 1062 3.4 09:04:37 10° W 09:07:33 55° S 09:10:29 10° ESE
STARLINK-79 4.1 09:03:37 10° WSW 09:07:43 50° NNW 09:11:03 15° NE
Cosmos 1943 3.8 09:03:11 10° SW 09:08:48 55° WNW 09:14:22 10° N
Cosmos 1743 3.9 09:06:22 14° NE 09:09:03 28° E 09:12:31 10° SSE
STARLINK 1053 3.4 09:06:20 10° W 09:09:15 55° S 09:12:12 10° ESE
Resurs 1-3 3.8 09:04:56 10° SSE 09:09:22 56° E 09:13:44 10° N
STARLINK-78 4.1 09:05:18 10° WSW 09:09:23 49° NNW 09:12:39 15° NE
BREEZE-M DEB (TANK) 1.7 09:07:42 10° WNW 09:09:49 56° N 09:12:24 10° E
STARLINK 1061 3.4 09:07:06 10° W 09:10:01 55° S 09:12:55 10° ESE
Cosmos 1452 Rocket 3.6 09:04:42 10° NNW 09:10:01 83° WSW 09:15:24 10° SSE
STARLINK 1067 3.4 09:08:22 10° W 09:11:18 55° S 09:14:14 10° ESE
STARLINK 1058 3.5 09:09:31 10° W 09:12:27 55° S 09:15:23 10° ESE
STARLINK-49 4.1 09:08:37 10° WSW 09:12:41 47° NNW 09:15:50 16° NE
STARLINK 1043 3.4 09:10:46 10° W 09:13:41 55° S 09:16:37 10° ESE
Cosmos 1461 3.1 09:09:23 10° SW 09:13:56 77° NW 09:17:25 16° NNE
STARLINK-27 4.2 09:10:17 10° WSW 09:14:21 46° NNW 09:17:26 16° NE
STARLINK 1065 3.5 09:11:51 10° W 09:14:47 55° S 09:17:44 10° ESE
STARLINK 1017 3.4 09:11:59 10° W 09:14:51 54° S 09:17:44 10° ESE
Cosmos 1378 4.4 09:11:37 10° S 09:15:00 28° ESE 09:17:29 15° NE
USA 234 3.7 09:09:40 12° NNE 09:15:34 51° NW 09:22:01 10° WSW
STARLINK 1034 3.4 09:12:53 10° W 09:15:45 54° S 09:18:38 10° ESE
STARLINK-74 4.2 09:11:56 10° WSW 09:16:00 45° NNW 09:19:01 16° NE
STARLINK 1063 3.5 09:13:19 10° W 09:16:16 55° S 09:19:12 10° ESE
STARLINK 1064 3.5 09:14:20 10° W 09:17:17 55° S 09:20:13 10° ESE
STARLINK 1027 3.5 09:14:37 10° W 09:17:34 55° S 09:20:32 10° ESE
STARLINK-39 4.2 09:13:36 10° WSW 09:17:38 44° NNW 09:20:36 17° NE
STARLINK 1028 3.5 09:14:50 10° W 09:17:47 55° S 09:20:45 10° ESE
STARLINK 1021 3.5 09:15:03 10° W 09:18:00 55° S 09:20:58 10° ESE
STARLINK 1019 3.5 09:15:19 10° W 09:18:15 54° S 09:21:11 10° ESE
STARLINK 1012 3.5 09:15:30 10° W 09:18:28 55° S 09:21:25 10° ESE
STARLINK 1041 3.5 09:15:35 10° W 09:18:31 54° S 09:21:28 10° ESE
STARLINK 1010 3.5 09:15:43 10° W 09:18:41 55° S 09:21:38 10° ESE
STARLINK 1026 3.5 09:15:56 10° W 09:18:54 55° S 09:21:52 10° ESE
Mayak -1.0 09:15:39 15° NNE 09:18:59 58° ESE 09:23:08 10° S
STARLINK 1013 3.5 09:16:10 10° W 09:19:08 55° S 09:22:06 10° ESE
STARLINK 4.3 09:15:18 10° WSW 09:19:19 43° NNW 09:22:13 17° NNE
STARLINK 1009 3.5 09:16:23 10° W 09:19:21 55° S 09:22:18 10° ESE
STARLINK 1015 3.5 09:16:36 10° W 09:19:34 55° S 09:22:32 10° ESE
STARLINK 1016 3.5 09:16:50 10° W 09:19:48 55° S 09:22:45 10° ESE
STARLINK 1038 3.5 09:16:52 10° W 09:19:48 54° S 09:22:45 10° ESE
STARLINK 1008 3.5 09:17:05 10° W 09:20:02 54° S 09:22:59 10° ESE
STARLINK 1045 3.5 09:17:14 10° W 09:20:11 55° S 09:23:08 10° ESE
STARLINK 1014 3.5 09:17:16 10° W 09:20:14 55° S 09:23:11 10° ESE
SL-08 RB Rocket 3.7 09:15:43 10° SSE 09:20:25 79° ENE 09:25:00 10° N
STARLINK 1025 3.5 09:17:30 10° W 09:20:28 55° S 09:23:26 10° ESE
STARLINK-42 4.3 09:16:28 10° WSW 09:20:28 41° NNW 09:23:19 17° NNE
STARLINK 1023 3.5 09:17:59 10° W 09:20:56 54° S 09:23:53 10° ESE
STARLINK 1046 3.5 09:18:06 10° W 09:21:03 54° S 09:23:59 10° ESE
STARLINK 1007 3.5 09:18:11 10° W 09:21:08 55° S 09:24:06 10° ESE
STARLINK 1048 3.5 09:18:23 10° W 09:21:22 55° S 09:24:19 10° ESE
Sich 1 Rocket 4.1 09:18:01 15° NNE 09:21:26 42° E 09:25:41 10° SSE
STARLINK 1049 3.5 09:18:37 10° W 09:21:36 55° S 09:24:33 10° ESE
STARLINK 1051 3.5 09:18:50 10° W 09:21:48 55° S 09:24:46 10° ESE
STARLINK 1068 3.5 09:18:55 10° W 09:21:53 55° S 09:24:51 10° ESE
STARLINK 1037 3.5 09:19:04 10° W 09:22:02 55° S 09:25:00 10° E
ATLAS CENTAUR R/B 4.1 09:19:41 10° SSW 09:22:05 15° SSE 09:24:33 10° SE
STARLINK 1059 3.5 09:19:18 10° W 09:22:16 55° S 09:25:13 10° E
STARLINK 1039 3.5 09:19:22 10° W 09:22:19 54° S 09:25:16 10° E
STARLINK 1057 3.5 09:19:31 10° W 09:22:29 55° S 09:25:27 10° E
STARLINK-21 4.3 09:18:36 10° WSW 09:22:35 41° NNW 09:25:22 18° NNE
STARLINK 1052 3.5 09:19:44 10° W 09:22:42 55° S 09:25:41 10° E
STARLINK 1029 3.5 09:20:12 10° W 09:23:10 55° S 09:26:08 10° E
STARLINK 1060 3.5 09:20:26 10° W 09:23:24 55° S 09:26:22 10° E
STARLINK 1030 3.5 09:20:42 10° W 09:23:38 54° S 09:26:35 10° E
STARLINK 1020 3.5 09:20:53 10° W 09:23:51 55° S 09:26:49 10° E
SPOT 3 Rocket 3.7 09:18:33 10° SSE 09:23:52 84° WSW 09:29:07 10° NNW
STARLINK-45 4.5 09:20:34 10° WSW 09:24:30 37° NW 09:27:11 18° NNE
STARLINK 1033 3.5 09:21:34 10° W 09:24:32 55° S 09:27:30 10° E
Cosmos 1066 Rocket 4.2 09:19:05 10° SSW 09:24:37 83° W 09:29:42 13° N
H-2A R/B 2.4 09:19:16 10° SSE 09:24:40 75° WSW 09:30:07 10° NNW
STARLINK 1047 3.5 09:21:47 10° W 09:24:45 54° S 09:27:42 10° E
STARLINK 1031 3.5 09:21:47 10° W 09:24:45 55° S 09:27:43 10° E
STARLINK 1024 3.5 09:22:03 10° W 09:25:01 54° S 09:27:58 10° E
STARLINK 1035 3.5 09:22:17 10° W 09:25:14 54° S 09:28:11 10° E
STARLINK 1032 3.5 09:22:29 10° W 09:25:28 55° S 09:28:27 10° E
STARLINK 1011 3.5 09:22:44 10° W 09:25:41 54° S 09:28:39 10° E
STARLINK 1036 3.5 09:22:57 10° W 09:25:55 55° S 09:28:54 10° E
Cosmos 1553 Rocket 4.2 09:20:57 11° N 09:27:09 60° E 09:33:30 10° SSE
STARLINK-76 4.4 09:23:39 10° WSW 09:27:36 38° NW 09:30:12 18° NNE
STARLINK 4.5 09:25:19 10° WSW 09:29:14 38° NW 09:31:48 19° NNE
Landsat 4 3.9 09:26:53 18° NNE 09:29:37 64° ESE 09:33:31 10° S
STARLINK-32 4.5 09:26:57 10° WSW 09:30:52 37° NW 09:33:22 19° NNE
Terra 3.9 09:29:29 10° ESE 09:31:17 12° E 09:33:05 10° ENE
Helios 1B rocket 4.4 09:29:43 11° ENE 09:32:36 20° ESE 09:35:37 10° SSE
BREEZE-M DEB (TANK) 3.4 09:30:44 10° NW 09:33:30 43° NE 09:40:33 10° ESE
Cosmos 1666 2.9 09:31:31 10° NNW 09:35:18 71° W 09:39:10 10° S
STARLINK 1040 3.3 09:33:19 10° WSW 09:36:03 53° S 09:38:48 10° E
Cosmos 1975 3.6 09:34:33 20° NNE 09:36:53 37° E 09:40:44 10° SSE
Cosmos 1844 Rocket 3.5 09:34:32 17° NNE 09:38:11 33° ENE 09:43:14 10° SE
MetOp-A 4.1 09:33:09 10° SSE 09:38:39 82° ENE 09:44:04 10° NNW
CZ-4C R/B 4.0 09:36:23 10° WSW 09:40:13 19° WNW 09:43:42 10° NNW
SWARM A 4.3 09:40:46 22° NNE 09:42:46 64° E 09:46:12 10° S
Timation 1 Rocket 4.5 09:37:48 10° NNW 09:43:52 82° WSW 09:50:00 10° SSE
Cosmos 1908 Rocket 4.3 09:43:38 10° NNW 09:47:56 51° WSW 09:52:17 10° S
ATLAS CENTAUR R/B 2.4 09:45:37 10° WSW 09:48:39 24° NW 09:49:28 20° NNW
Cosmos 1302 Rocket 4.5 09:46:00 18° NNE 09:49:27 42° ENE 09:54:24 10° SE
JB-3 4.3 09:47:07 23° NNE 09:49:30 78° ESE 09:53:29 10° S
Meteor 1-4 Rocket 3.7 09:46:31 10° S 09:49:43 30° ESE 09:51:21 20° ENE
Okean 2 Rocket 3.5 09:48:57 21° NNE 09:51:45 51° E 09:56:15 10° SSE
Cosmos 1709 Rocket 4.4 09:46:31 10° S 09:52:45 53° ESE 09:57:08 20° NE
Cosmos 1536 Rocket 4.1 09:49:46 10° S 09:54:04 46° ESE 09:56:31 23° NE
Cosmos 2278 Rocket 4.2 09:52:59 11° ENE 09:54:23 12° E 09:56:14 10° ESE
Cosmos 1417 Rocket 4.5 09:49:08 12° N 09:54:59 87° ENE 10:01:22 10° S
ARGOS 4.0 09:49:50 10° S 09:55:09 51° WSW 10:00:27 10° NW
Cosmos 1842 3.5 09:51:34 10° S 09:55:35 57° ESE 09:57:40 26° NNE
Cosmos 1441 Rocket 3.1 09:53:40 22° N 09:56:01 69° E 09:59:50 10° SSE
Cosmos 44 4.3 10:06:07 24° NE 10:07:40 29° ENE 10:12:04 10° ESE
Cosmos 1437 Rocket 4.4 10:04:36 10° SSE 10:07:46 23° ESE 10:09:36 17° ENE
FALCON 9 DEB 2.8 10:05:18 10° WSW 10:07:48 58° S 10:09:02 25° E
Okean 1 Rocket 4.5 10:06:57 20° ENE 10:08:36 24° E 10:12:14 10° SSE
Meteor 1-21 4.2 10:03:35 10° S 10:09:19 80° ESE 10:12:56 23° NNE
Cosmos 332 Rocket 3.7 10:05:58 12° NNW 10:10:27 88° ENE 10:15:22 10° SSE
USA 238 DEB 4.5 10:08:57 20° NNE 10:13:07 35° ENE 10:19:33 10° SE
Iridium 4 Rocket 4.4 10:09:07 10° SSW 10:13:33 41° W 10:18:02 11° NNW
Starlink Launch 2 leader 2.7 10:12:07 10° WSW 10:14:40 62° S 10:15:41 30° E
FALCON 9 DEB 2.7 10:14:53 10° WSW 10:17:25 62° S 10:18:18 34° E
STARLINK 1044 3.0 10:14:58 10° WSW 10:17:51 65° S 10:19:31 22° E
Starlink Launch 2 trailer 2.7 10:15:48 10° WSW 10:18:22 64° SSE 10:19:14 35° E
Cosmos 1707 3.8 10:15:25 10° S 10:19:10 36° ESE 10:20:51 25° ENE
Cosmos 389 Rocket 2.5 10:16:19 10° SSW 10:19:52 78° W 10:21:16 34° N
Cosmos 1844 3.9 10:17:06 22° N 10:20:32 52° ENE 10:26:00 10° SE
FALCON 9 DEB 2.6 10:18:01 10° WSW 10:20:33 64° SSE 10:21:19 38° E
CZ-4B DEB 4.4 10:17:51 10° SSE 10:21:22 86° ENE 10:22:52 32° NNW
Resurs 01 Rocket 2.8 10:17:43 10° S 10:22:02 43° WSW 10:26:17 10° NW
USA 267 3.8 10:15:39 10° ESE 10:22:10 62° SSW 10:28:40 10° W
ARGOS Delta rocket 3.6 10:18:18 10° SSE 10:22:56 89° ENE 10:25:40 23° NNW
Cosmos 1486 Rocket 4.0 10:17:40 10° SSW 10:22:58 79° WNW 10:25:56 27° NNE
Cosmos 1745 Rocket 4.4 10:18:08 10° SSW 10:24:16 59° W 10:28:55 18° NNW
SeaSat 1 4.0 10:20:00 10° SSE 10:24:34 37° SW 10:29:06 10° WNW
Cosmos 1025 Rocket 3.0 10:21:43 10° S 10:26:07 86° E 10:28:10 31° NNE
IGS 5A 3.5 10:22:53 10° SSE 10:27:07 68° ENE 10:29:04 30° N
Aureole 3 Rocket 3.4 10:26:04 20° NNW 10:28:34 62° WSW 10:33:36 10° S
Cosmos 1300 Rocket 3.5 10:26:47 28° N 10:29:06 83° E 10:33:33 10° SSE
SPOT 1/Viking Rocket 3.6 10:27:29 10° SSE 10:32:43 68° ENE 10:35:37 26° N
USA 245 2.6 10:32:02 10° S 10:35:11 69° WSW 10:35:52 45° NW
Landsat 7 3.8 10:30:40 10° SSE 10:35:33 81° ENE 10:38:16 26° N
STARLINK 1050 2.8 10:32:46 10° WSW 10:35:43 75° SSE 10:36:45 36° E
Spot 2 Rocket 3.8 10:30:51 10° S 10:35:57 66° WSW 10:40:06 16° NNW
STARLINK 1055 2.8 10:33:58 10° WSW 10:36:56 76° SSE 10:37:56 37° E
STARLINK 1022 2.8 10:35:09 10° WSW 10:38:07 77° SSE 10:39:05 38° E
STARLINK 1042 2.7 10:36:03 10° WSW 10:39:01 77° SSE 10:39:55 40° E
CZ-4 R/B 4.3 10:36:19 26° NE 10:39:03 60° ESE 10:44:05 10° S
Cosmos 371 Rocket 4.3 10:35:23 10° NW 10:40:07 47° WSW 10:44:53 10° SSE
STARLINK 1056 2.7 10:37:25 10° WSW 10:40:23 79° SSE 10:41:16 41° E
Meteor 1-29 3.6 10:39:38 34° ENE 10:40:41 47° ESE 10:44:05 10° S
Cosmos 2263 Rocket 4.1 10:36:24 10° WNW 10:41:27 31° SW 10:46:33 10° SSE
STARLINK 1054 2.7 10:38:44 10° WSW 10:41:42 79° SSE 10:42:30 44° E
ATLAS 5 CENTAUR R/B 4.4 10:36:35 10° W 10:42:25 31° SSW 10:47:39 10° SE
STARLINK 1062 2.7 10:39:43 10° WSW 10:42:42 80° SSE 10:43:31 44° E
NOSS 3-3 (A) 4.0 10:37:08 10° SW 10:44:00 86° SE 10:48:01 23° NE
NOSS 3-3 (C) 4.0 10:37:17 10° SW 10:44:08 86° SE 10:48:09 23° NE
STARLINK 1053 2.7 10:41:27 10° WSW 10:44:25 82° SSE 10:45:10 47° E
Cosmos 1743 4.5 10:41:25 11° NW 10:44:48 29° WSW 10:48:21 10° S
STARLINK 1061 2.7 10:42:13 10° WSW 10:45:11 82° SSE 10:45:52 49° E
STARLINK 1067 2.7 10:43:29 10° WSW 10:46:28 83° SSE 10:47:09 49° E
CZ-3B R/B 3.5 10:26:30 10° WNW 10:47:07 87° NNE 10:51:26 10° ESE
Cosmos 304 Rocket 3.9 10:44:03 19° NNW 10:47:32 78° WSW 10:52:28 10° SSE
STARLINK 1058 2.7 10:44:39 10° WSW 10:47:37 84° SSE 10:48:16 51° E
Cosmos 2074 Rocket 4.4 10:41:24 10° S 10:47:38 55° ESE 10:51:16 25° NE
ERS-1 Rocket 2.9 10:42:54 10° SSE 10:48:04 82° ENE 10:50:52 27° N
STARLINK 1043 2.6 10:45:54 10° WSW 10:48:53 85° SSE 10:49:27 54° E
Cosmos 2315 Rocket 4.0 10:45:14 24° N 10:49:14 86° E 10:55:34 10° S
STARLINK 1017 2.6 10:46:56 10° WSW 10:49:51 86° SSE 10:50:18 60° E
STARLINK 1065 2.6 10:46:59 10° WSW 10:49:59 86° SSE 10:50:32 55° ENE
STARLINK 1034 2.6 10:47:48 10° WSW 10:50:43 87° SSE 10:51:07 63° ENE
CARTOSAT-1 3.5 10:46:34 10° SSE 10:51:01 77° ENE 10:52:53 34° N
STARLINK 1063 2.6 10:48:27 10° WSW 10:51:27 87° SSE 10:51:58 58° ENE
STARLINK 1064 2.6 10:49:29 10° WSW 10:52:29 88° SSE 10:52:57 60° ENE
STARLINK 1027 2.6 10:49:49 10° WSW 10:52:49 89° S 10:53:18 59° ENE
STARLINK 1028 2.6 10:50:02 10° WSW 10:53:02 89° S 10:53:31 60° ENE
STARLINK 1021 2.6 10:50:15 10° WSW 10:53:15 89° S 10:53:44 60° ENE
STARLINK 1019 2.6 10:50:31 10° WSW 10:53:31 89° SE 10:53:55 63° ENE
Cosmos 1992 Rocket 4.2 10:51:07 30° N 10:53:32 57° ENE 10:58:44 10° SSE
STARLINK 1012 2.6 10:50:42 10° WSW 10:53:43 89° SSE 10:54:10 61° ENE
STARLINK 1041 2.6 10:50:44 10° WSW 10:53:44 89° SE 10:54:09 62° ENE
STARLINK 1010 2.6 10:50:55 10° WSW 10:53:55 89° SSW 10:54:23 61° ENE
STARLINK 1026 2.6 10:51:09 10° WSW 10:54:10 90° ESE 10:54:36 62° ENE
STARLINK 1013 2.6 10:51:22 10° WSW 10:54:23 89° ENE 10:54:48 62° ENE
STARLINK 1009 2.6 10:51:36 10° WSW 10:54:36 90° W 10:55:01 63° ENE
STARLINK 1015 2.6 10:51:49 10° WSW 10:54:49 90° NNW 10:55:14 63° ENE
Mayak 1.0 10:52:14 10° NW 10:54:56 17° W 10:57:46 10° SW
STARLINK 1038 2.6 10:52:01 10° WSW 10:55:01 90° NNW 10:55:24 65° ENE
STARLINK 1016 2.6 10:52:02 10° WSW 10:55:03 90° NNW 10:55:27 64° ENE
Cosmos 2082 Rocket 3.1 10:49:46 10° SSW 10:55:15 44° SE 10:59:40 15° ENE
Cosmos 405 Rocket 2.6 10:53:58 41° N 10:55:15 86° E 10:59:11 10° SSE
STARLINK 1008 2.6 10:52:18 10° WSW 10:55:18 89° NNE 10:55:40 65° ENE
STARLINK 1045 2.6 10:52:25 10° WSW 10:55:25 89° NNW 10:55:48 65° ENE
STARLINK 1014 2.6 10:52:29 10° WSW 10:55:30 89° NNW 10:55:53 64° ENE
STARLINK 1025 2.6 10:52:42 10° WSW 10:55:43 89° NNW 10:56:06 65° ENE
Cosmos 2184 Rocket 4.3 10:49:49 10° S 10:56:05 61° ESE 10:59:40 26° NNE
STARLINK 1023 2.6 10:53:12 10° WSW 10:56:12 88° NNW 10:56:32 67° ENE
STARLINK 1046 2.6 10:53:16 10° WSW 10:56:15 88° NNW 10:56:36 68° ENE
Cosmos 1833 Rocket 3.1 10:50:38 10° SSW 10:56:16 59° SE 10:59:55 22° NE
STARLINK 1007 2.6 10:53:22 10° WSW 10:56:24 88° N 10:56:45 66° ENE
STARLINK 1048 2.6 10:53:36 10° WSW 10:56:38 88° N 10:56:58 67° ENE
STARLINK 1049 2.6 10:53:50 10° WSW 10:56:52 88° N 10:57:12 67° ENE
STARLINK 1051 2.6 10:54:04 10° WSW 10:57:05 88° NNW 10:57:25 68° ENE
STARLINK 1068 2.6 10:54:08 10° WSW 10:57:09 88° NNW 10:57:29 68° ENE
STARLINK 1037 2.6 10:54:17 10° WSW 10:57:18 87° NNW 10:57:38 68° ENE
STARLINK 1039 2.6 10:54:31 10° WSW 10:57:32 87° NNW 10:57:49 70° ENE
STARLINK 1059 2.6 10:54:31 10° WSW 10:57:32 87° NNW 10:57:51 68° ENE
STARLINK 1057 2.6 10:54:44 10° WSW 10:57:45 87° NNW 10:58:04 69° ENE
Cosmos 2151 Rocket 4.0 10:55:23 24° NNW 10:57:56 57° WSW 11:02:24 10° S
STARLINK 1052 2.6 10:54:57 10° WSW 10:57:59 87° N 10:58:17 69° ENE
STARLINK 1029 2.6 10:55:25 10° WSW 10:58:27 86° NNW 10:58:44 70° ENE
STARLINK 1060 2.6 10:55:39 10° WSW 10:58:41 86° NNW 10:58:58 71° ENE
STARLINK 1030 2.6 10:55:54 10° WSW 10:58:54 86° NNW 10:59:09 73° ENE
STARLINK 1020 2.6 10:56:06 10° WSW 10:59:07 86° NNW 10:59:24 72° ENE
STARLINK 1033 2.6 10:56:47 10° WSW 10:59:49 85° NNW 11:00:03 73° NE
STARLINK 1047 2.6 10:56:59 10° WSW 10:59:59 85° NNW 11:00:13 74° NE
STARLINK 1031 2.6 10:57:01 10° WSW 11:00:02 85° NNW 11:00:16 73° NE
STARLINK 1024 2.6 10:57:16 10° WSW 11:00:16 85° NNW 11:00:29 75° NE
STARLINK 1035 2.6 10:57:31 10° WSW 11:00:31 85° NNW 11:00:43 75° NE
STARLINK 1032 2.6 10:57:43 10° WSW 11:00:45 84° NNW 11:00:58 74° NE
STARLINK 1011 2.6 10:57:58 10° WSW 11:00:58 84° NNW 11:01:09 77° NE
STARLINK 1036 2.6 10:58:11 10° WSW 11:01:12 84° NNW 11:01:24 75° NE
Cosmos 968 Rocket 3.7 10:56:20 10° SSW 11:01:31 63° WNW 11:03:54 32° N
Cosmos 1354 Rocket 4.1 10:56:11 10° SSW 11:01:34 74° WNW 11:04:04 32° N
ATLAS CENTAUR R/B 2.6 10:58:03 10° SSW 11:02:00 40° SE 11:05:26 14° ENE
Cosmos 1503 Rocket 4.1 10:56:50 10° SSW 11:02:12 67° WNW 11:04:39 32° N
NOSS 3-2 (C) 4.4 11:00:15 25° N 11:04:36 45° ENE 11:11:39 10° SE
Helios 1B rocket 2.8 11:06:02 35° NNW 11:07:31 56° W 11:11:38 10° SSW
SPOT 5 3.2 11:03:20 10° SSE 11:08:48 82° WSW 11:11:55 27° NNW
COSMOS 2406 3.3 11:03:42 10° SSW 11:09:27 68° WNW 11:12:13 31° N
Terra 1.8 11:04:58 10° SSE 11:09:51 79° ENE 11:11:59 34° N
In-Cosmos 22 4.2 11:04:23 10° S 11:09:52 78° ESE 11:12:33 32° NNE
STARLINK 1040 3.2 11:07:48 10° WSW 11:09:58 47° W 11:09:58 47° W
Meteor 2-5 Rocket 4.2 11:11:45 10° S 11:17:35 58° ESE 11:20:52 26° NE
Cosmos 1844 Rocket 3.4 11:16:21 10° NW 11:21:52 52° SW 11:27:30 10° SSE
Meteor 1-4 Rocket 4.2 11:21:49 10° SW 11:24:37 22° W 11:25:34 20° WNW
Cosmos 1544 4.5 11:23:03 22° WNW 11:24:47 33° WSW 11:28:13 10° S
ALOS 2 4.5 11:24:36 10° SE 11:27:44 18° E 11:29:07 16° ENE
SL-19 R/B 4.1 11:27:22 34° NNE 11:29:47 83° WNW 11:35:14 10° SSW
Resurs 1-4 Rocket 3.8 11:26:20 10° ENE 11:30:38 27° ESE 11:35:04 10° S
CENTAUR R/B 3.2 11:28:32 28° N 11:32:17 47° ENE 11:38:51 10° SE
Cosmos 2278 Rocket 2.3 11:34:47 33° N 11:37:21 65° ENE 11:43:01 10° SE
Okean 1-7 Rocket 3.6 11:34:51 10° SSW 11:39:27 84° WNW 11:41:04 40° N
Meteor 1-24 Rocket 4.1 11:33:45 10° S 11:39:35 63° ESE 11:42:52 27° NNE
Cosmos 2285 Rocket 4.2 11:35:07 10° SSW 11:41:27 60° WNW 11:44:34 31° N
PSLV R/B 3.7 11:40:10 39° N 11:41:57 81° WNW 11:46:47 10° SSW
Cosmos 1437 Rocket 3.7 11:40:35 10° SSW 11:44:08 34° W 11:45:00 30° WNW
Cosmos 2327 Rocket 4.5 11:39:13 10° S 11:45:36 84° W 11:48:46 31° N
Okean 1 Rocket 4.0 11:44:07 25° NW 11:46:16 42° WSW 11:50:35 10° S
Cosmos 1805 3.6 11:45:36 43° NE 11:46:31 54° E 11:50:26 10° SSE
Cosmos 44 3.9 11:44:28 15° WNW 11:48:37 60° SW 11:53:50 10° SE
SL-14 R/B 4.5 11:45:57 10° S 11:49:39 35° ESE 11:51:16 25° ENE
Cosmos 1184 Rocket 3.0 11:52:19 52° NW 11:52:54 64° WSW 11:56:18 10° S
Cosmos 1455 Rocket 3.1 11:53:07 41° N 11:54:39 76° E 11:59:14 10° SSE
Cosmos 1707 4.4 11:51:41 10° SW 11:54:52 23° W 11:56:02 20° WNW
